TimePST,TemperatureF,Dew PointF,Humidity,Sea Level PressureIn,VisibilityMPH,Wind Direction,Wind SpeedMPH,Gust SpeedMPH,PrecipitationIn,Events,Conditions,WindDirDegrees,DateUTC
12:54 AM,39.0,32.0,76,30.27,10.0,ENE,5.8,-,N/A,,Clear,60,2013-01-02 08:54:00
1:54 AM,37.9,30.9,76,30.26,10.0,ENE,6.9,-,N/A,,Clear,70,2013-01-02 09:54:00
2:54 AM,37.0,30.9,79,30.26,10.0,Calm,Calm,-,N/A,,Clear,0,2013-01-02 10:54:00
3:54 AM,35.1,28.9,78,30.25,10.0,Calm,Calm,-,N/A,,Clear,0,2013-01-02 11:54:00
4:54 AM,35.1,30.0,82,30.25,10.0,East,3.5,-,N/A,,Clear,80,2013-01-02 12:54:00
5:54 AM,34.0,30.0,85,30.24,10.0,Calm,Calm,-,N/A,,Clear,0,2013-01-02 13:54:00
6:54 AM,35.1,30.0,82,30.25,10.0,Calm,Calm,-,N/A,,Clear,0,2013-01-02 14:54:00
7:54 AM,35.1,32.0,89,30.26,8.0,Calm,Calm,-,N/A,,Clear,0,2013-01-02 15:54:00
8:54 AM,41.0,34.0,76,30.27,10.0,Calm,Calm,-,N/A,,Clear,0,2013-01-02 16:54:00
9:54 AM,45.0,35.1,68,30.27,10.0,Calm,Calm,-,N/A,,Clear,0,2013-01-02 17:54:00
10:54 AM,46.9,36.0,66,30.27,10.0,South,4.6,-,N/A,,Clear,180,2013-01-02 18:54:00
11:54 AM,51.1,36.0,56,30.24,10.0,SSW,3.5,-,N/A,,Clear,210,2013-01-02 19:54:00
12:54 PM,53.1,36.0,52,30.22,10.0,Calm,Calm,-,N/A,,Clear,0,2013-01-02 20:54:00
1:54 PM,54.0,37.9,55,30.19,10.0,Variable,3.5,-,N/A,,Clear,0,2013-01-02 21:54:00
2:54 PM,54.0,36.0,51,30.19,10.0,SW,3.5,-,N/A,,Clear,220,2013-01-02 22:54:00
3:54 PM,54.0,36.0,51,30.18,10.0,West,4.6,-,N/A,,Clear,280,2013-01-02 23:54:00
4:54 PM,54.0,33.1,45,30.17,10.0,NNE,9.2,-,N/A,,Clear,20,2013-01-03 00:54:00
5:54 PM,51.1,32.0,48,30.18,10.0,NNE,6.9,-,N/A,,Clear,20,2013-01-03 01:54:00
6:54 PM,48.0,32.0,54,30.18,10.0,ENE,5.8,-,N/A,,Clear,60,2013-01-03 02:54:00
7:54 PM,45.0,33.1,63,30.19,10.0,Calm,Calm,-,N/A,,Clear,0,2013-01-03 03:54:00
8:54 PM,44.1,33.1,65,30.20,10.0,ENE,6.9,-,N/A,,Clear,60,2013-01-03 04:54:00
9:54 PM,44.1,32.0,63,30.20,10.0,NE,8.1,-,N/A,,Clear,50,2013-01-03 05:54:00
10:54 PM,43.0,32.0,65,30.20,10.0,ENE,6.9,-,N/A,,Clear,70,2013-01-03 06:54:00
11:54 PM,42.1,33.1,70,30.20,10.0,Calm,Calm,-,N/A,,Clear,0,2013-01-03 07:54:00